Volver al catálogo

SL-14 DEB

ActivoPO
NORAD 45339·DEBRIS·🇷🇺 Russia

Lanzado Aug 15, 1991 desde Plesetsk Cosmodrome

Loading…

Próximos Pases (próximas 24 horas)

TLE

ActualizadoSource: Space-Track

Época: Sep 13, 2026, 03:24 UTC

1 45339U 91056CD  26256.14176874  .00005155  00000-0  48560-2 0  9995
2 45339  82.5030 306.8238 0104081 138.4140 222.4993 13.78760228323226

Sigue SL-14 DEB en tiempo real con AllMySat

Download on the App Store